RH
64 70 74 76 85 91 92 93 89 92 95 91 89 91 93 91 86 82 80 81 79 75 76 81 77 76 79 76 76 82 83 80 72 62 57 54 55 58 63 74 80 73 69 66 65 59 48 55 64 61 65 66 64 67 72 79 81 75 69 69 67 65
64 62 66 68 76 86 91 92 90 94 94 90 91 95 96 96 95 87 80 80 78 75 79 82 79 76 74 71 73 78 84 81 73 65 60 54 53 58 56 60 73 78 74 68 68 67 58 60 63 60 65 67 63 66 72 77 78 73 70 69 68 67
69 63 65 67 70 79 86 89 90 94 96 93 93 95 94 94 96 91 84 81 77 77 80 84 83 77 71 70 72 74 81 81 76 72 65 57 54 58 56 52 59 74 78 69 66 67 64 61 59 60 65 66 63 65 72 76 75 72 70 68 67 68
75 69 68 65 66 72 81 85 88 92 94 95 95 94 94 94 94 94 91 83 79 80 82 87 86 79 75 75 75 75 78 81 81 78 71 62 59 62 59 52 54 71 78 68 65 66 66 62 54 59 67 65 63 66 72 76 75 72 69 67 66 68
79 78 76 70 65 65 70 76 82 87 88 90 94 93 94 95 91 92 93 86 84 84 84 88 86 82 80 80 81 78 78 82 84 81 75 68 66 67 62 54 55 69 73 66 66 66 66 63 53 58 67 66 64 67 73 75 75 73 68 65 66 68
82 84 83 79 75 68 64 66 70 78 82 84 88 90 95 95 92 93 92 89 89 88 88 86 84 83 80 82 84 79 77 79 80 77 72 70 69 69 64 58 57 64 68 66 67 66 65 64 56 57 64 67 66 67 72 74 74 73 67 65 67 67
81 82 83 85 86 80 72 66 63 70 73 74 79 84 90 90 90 92 90 90 90 89 89 83 83 84 80 86 88 82 79 77 77 73 67 69 68 67 66 62 59 60 65 67 65 64 64 63 58 56 60 66 68 68 70 73 73 71 66 65 68 68
79 78 80 83 87 86 81 73 67 68 66 66 69 72 77 82 85 87 88 90 89 87 83 78 81 80 76 86 91 86 80 76 75 69 62 65 66 66 68 66 63 61 63 63 61 64 69 70 65 58 57 62 69 69 68 70 70 68 66 66 68 68
78 78 79 80 83 86 84 77 72 70 69 68 66 62 64 75 84 84 87 88 85 83 77 76 82 81 78 82 90 91 81 76 75 66 56 58 63 65 65 66 66 64 63 62 64 71 76 79 75 63 55 55 66 73 69 68 67 64 65 68 68 68
79 79 80 79 82 86 84 81 81 78 77 76 71 65 60 67 81 85 86 87 84 83 80 83 87 85 85 84 91 97 85 75 71 61 49 49 58 61 62 65 65 64 65 67 72 77 78 78 77 70 60 53 62 75 76 72 70 65 61 66 68 68
82 82 81 80 82 86 84 85 88 84 84 85 80 76 67 65 78 84 84 85 84 84 86 90 90 87 88 88 92 95 88 78 68 58 48 45 54 58 58 59 58 59 63 69 73 73 73 72 71 71 67 62 65 74 77 75 74 70 62 64 67 68
82 83 81 80 82 83 82 85 84 82 86 91 91 90 85 77 81 87 85 83 83 84 86 88 88 87 88 90 93 93 90 85 74 63 52 46 51 55 56 56 57 60 62 67 69 67 67 68 68 70 70 69 70 72 74 74 74 73 66 63 67 68
77 81 80 79 81 78 75 72 67 72 85 94 96 96 97 92 89 90 88 85 84 86 86 86 88 88 86 88 94 97 94 94 89 78 68 61 56 54 55 55 57 61 63 64 62 61 64 67 69 71 71 70 69 70 71 73 72 71 68 65 66 67
72 78 80 79 77 68 60 54 50 60 80 93 96 99 100 97 96 94 92 91 89 89 90 90 93 93 92 89 91 97 98 99 98 89 83 80 72 64 60 59 59 58 61 65 64 64 68 71 71 70 71 69 68 68 69 70 69 68 67 65 66 67
73 77 77 72 65 57 53 51 48 53 65 73 80 93 99 95 95 94 94 96 92 92 95 95 97 96 95 95 95 99 100 96 94 88 80 77 78 79 75 72 71 67 68 77 80 79 81 81 79 73 70 70 68 66 67 67 68 67 65 64 65 65
71 73 69 64 59 56 55 53 52 54 58 60 61 72 86 92 94 89 88 91 90 92 97 98 98 97 95 99 99 94 91 89 86 86 82 79 83 88 90 87 84 81 80 85 88 89 88 86 85 80 73 71 68 66 66 66 66 65 65 65 64 64
66 67 63 61 57 56 56 54 55 58 61 62 58 58 66 77 80 74 71 74 78 82 89 92 93 96 97 99 96 84 85 92 89 91 92 90 90 92 96 96 93 92 90 88 89 91 90 87 86 85 79 72 66 63 64 65 65 66 68 67 65 65
60 61 59 58 55 53 53 53 55 59 62 58 56 58 59 60 63 65 66 66 66 65 73 85 92 97 96 94 92 85 90 97 95 96 94 91 95 97 98 100 98 98 98 93 93 96 96 91 84 81 81 76 66 60 61 64 66 68 71 69 66 66
57 58 57 55 51 49 49 50 53 59 60 51 49 58 62 61 64 67 68 66 65 64 70 83 93 96 92 86 84 81 86 94 98 100 95 93 98 100 99 100 98 96 98 98 97 98 95 89 81 76 80 81 70 59 57 61 65 70 71 70 68 67
55 56 54 50 47 46 46 47 50 53 52 48 49 57 64 68 70 73 73 71 70 72 76 82 88 90 85 82 80 76 76 84 93 96 95 95 98 100 99 97 94 94 97 99 99 97 92 88 85 82 82 82 75 64 58 59 62 67 71 71 69 68
53 54 50 46 45 44 44 44 45 46 45 48 54 59 65 71 75 77 79 79 78 79 81 83 84 84 82 81 81 79 73 72 78 82 88 93 92 94 98 96 96 100 99 96 97 97 96 94 90 86 82 80 76 70 64 61 61 63 67 69 69 68
49 49 45 42 40 41 44 43 39 39 40 47 57 62 68 75 78 78 79 80 79 78 79 80 79 79 79 78 81 83 80 79 83 87 92 95 89 88 94 93 93 95 93 92 96 97 94 94 93 89 87 85 82 76 70 66 64 63 64 64 65 66
45 44 40 34 34 38 42 40 33 34 38 44 56 65 69 69 66 67 74 73 67 64 63 63 67 74 74 74 80 84 84 84 88 91 92 89 84 87 93 93 90 88 87 90 95 93 91 92 94 93 93 95 91 87 79 71 69 66 64 63 63 63
41 39 35 30 33 40 41 38 33 34 36 34 43 54 54 50 47 50 60 62 59 59 58 55 62 73 75 75 82 84 84 83 80 82 83 81 80 83 88 91 94 95 94 97 98 96 95 95 94 92 94 96 93 92 89 84 82 71 62 63 62 61
40 36 33 32 37 42 40 40 39 39 36 31 37 46 44 44 46 49 53 58 63 61 59 62 68 74 75 76 78 79 81 83 81 79 78 78 78 78 80 80 85 90 92 97 98 99 99 98 96 94 93 95 92 92 94 94 93 79 65 65 64 61
39 36 33 34 40 43 42 43 41 37 33 32 37 40 38 39 44 49 52 60 65 59 59 66 70 70 71 72 71 72 76 80 81 81 78 77 76 76 76 76 76 78 81 87 91 93 96 98 99 97 96 97 93 93 97 98 96 89 78 72 69 69
35 35 34 36 41 44 45 47 43 32 25 26 28 27 28 33 40 47 54 60 61 57 61 66 66 66 68 70 70 71 74 77 79 79 78 78 76 76 75 75 75 74 75 79 80 84 91 93 94 95 96 98 97 97 98 98 98 98 94 83 75 73
28 32 34 37 42 44 43 46 47 37 25 23 24 22 24 30 37 45 53 59 59 59 63 66 66 68 69 71 74 74 75 76 75 74 74 74 74 74 74 73 73 73 73 74 75 80 84 84 85 87 87 89 93 97 97 97 95 96 100 96 86 78
26 30 35 39 43 45 43 45 49 43 31 26 25 23 23 26 33 42 52 58 58 60 67 68 68 69 70 72 72 69 70 71 64 57 54 54 53 54 56 58 61 63 65 68 72 76 79 82 85 85 82 80 83 86 90 95 95 93 97 100 95 88
27 29 35 40 43 46 45 45 48 45 35 29 27 25 23 24 28 35 45 54 55 58 67 70 70 70 71 69 58 49 49 48 42 37 34 32 32 33 38 43 49 52 54 59 65 70 75 79 82 83 83 82 87 90 91 95 97 95 97 98 97 94
30 31 35 40 43 44 46 47 46 42 35 30 30 27 24 23 25 26 32 43 48 53 62 68 70 71 72 66 48 35 34 33 31 32 32 30 28 33 40 44 48 52 55 59 64 67 71 74 75 78 79 81 88 95 96 98 99 97 97 98 98 97
34 35 35 38 43 45 47 49 46 39 32 29 30 29 26 24 24 22 22 31 41 48 55 63 68 70 71 65 47 35 35 36 37 40 38 34 31 36 41 45 49 56 61 65 67 68 69 71 73 74 76 78 81 84 89 95 98 99 99 97 97 98
35 37 37 39 44 47 48 49 46 37 30 30 30 30 29 26 26 24 21 25 33 38 43 48 56 62 63 59 48 41 44 44 45 49 48 39 35 38 41 45 51 56 62 67 70 71 71 72 74 73 74 76 76 77 80 84 88 94 99 99 99 98
35 36 39 42 45 48 48 47 44 36 30 30 29 30 31 28 27 27 24 23 24 28 30 31 38 48 52 52 49 49 51 51 51 55 54 43 37 40 43 48 53 55 60 66 69 72 73 73 73 73 72 71 72 75 76 77 79 84 90 94 98 99
35 35 38 42 44 47 48 45 41 34 29 29 28 29 32 31 29 28 28 26 24 25 26 26 31 39 44 46 48 49 53 56 57 60 57 46 39 42 47 50 52 54 59 64 66 69 71 72 72 72 72 71 71 71 71 73 75 76 78 82 86 90
37 33 35 38 41 46 47 42 37 32 29 28 28 30 33 34 32 29 30 30 29 28 26 27 32 39 42 45 48 50 56 60 60 61 58 47 42 46 51 54 53 56 61 63 66 68 69 71 72 73 74 74 74 73 71 71 72 74 74 74 76 79
48 42 39 38 41 45 46 41 34 31 30 29 29 31 34 37 35 32 31 32 33 32 29 28 32 38 42 47 51 55 60 63 61 61 57 46 44 49 53 56 56 59 63 64 66 69 71 73 73 73 74 75 78 78 76 73 72 75 76 74 74 75
Wind_Speed
10 10 10 10 11 12 11 10 10 10 11 14 16 14 13 11 11 11 11 10 10 10 9 9 9 10 11 10 10 11 12 13 11 10 10 9 10 12 14 14 12 11 11 12 12 12 14 13 10 7 7 7 7 9 9 10 9 8 8 8 8 8
10 10 10 9 10 11 10 10 10 10 10 13 15 15 14 13 12 12 11 10 10 9 9 10 9 10 10 10 10 11 12 13 11 10 9 9 9 11 13 14 13 12 11 11 10 11 13 14 11 7 7 8 8 9 11 10 9 8 7 7 7 7
10 10 10 10 10 10 10 10 10 10 9 11 13 14 14 14 13 12 11 11 10 9 9 9 10 10 9 10 10 10 12 12 11 10 9 8 9 10 12 13 14 13 12 12 11 9 11 13 12 8 7 9 9 9 11 11 9 7 6 6 7 7
9 9 9 10 10 10 10 10 10 10 9 9 11 12 13 14 13 12 12 11 10 9 9 10 10 10 9 10 10 10 11 11 11 10 8 8 10 10 11 12 14 14 13 12 11 10 9 11 12 9 7 9 10 10 11 11 9 8 6 6 6 6
8 8 8 9 9 9 10 10 9 9 9 9 9 10 11 11 12 13 12 11 10 9 9 10 10 11 11 11 11 10 10 11 11 9 8 9 10 11 12 13 14 15 14 12 11 10 9 10 12 10 7 8 11 11 11 11 10 8 6 5 5 5
8 7 7 7 8 8 9 9 9 9 9 9 8 9 9 9 11 13 13 12 11 10 10 10 10 11 12 12 12 12 12 12 11 10 10 10 11 13 13 14 15 15 15 13 10 9 9 9 12 12 9 8 11 12 11 11 10 8 7 5 5 4
9 8 7 6 7 7 8 7 8 9 9 9 8 8 8 8 11 13 13 12 11 11 11 11 11 11 12 13 13 13 13 13 13 12 11 11 12 13 14 14 15 16 15 13 10 9 8 8 10 13 11 8 10 12 11 11 10 9 7 6 5 4
10 9 8 7 7 7 7 8 8 9 8 8 8 8 8 8 9 11 11 11 12 12 12 11 12 12 11 13 14 14 14 14 13 12 11 11 12 12 13 14 15 15 13 12 10 8 6 5 7 11 13 10 9 11 11 11 10 9 8 7 6 5
10 10 8 8 7 7 8 9 9 9 9 8 8 8 8 8 8 9 9 11 12 13 12 11 12 12 12 13 15 15 14 15 14 13 11 11 11 11 11 13 14 12 11 11 10 8 6 4 4 7 12 13 10 10 10 10 10 10 8 8 7 6
11 10 9 9 7 7 8 9 9 9 9 9 9 9 9 9 8 9 9 10 12 13 12 12 12 12 12 13 15 17 16 16 16 14 12 11 10 9 10 12 12 11 10 10 9 7 5 4 3 4 8 12 13 11 10 10 10 10 9 9 8 7
12 11 10 9 8 7 7 7 7 7 9 10 10 10 9 9 9 9 8 9 11 12 11 12 13 13 13 14 16 19 19 18 17 15 12 11 10 9 9 10 10 10 10 9 8 6 4 4 3 3 6 10 12 12 11 11 11 11 11 10 9 9
13 13 12 11 9 8 7 6 6 6 8 10 10 10 10 9 9 9 9 9 10 11 13 14 14 14 13 15 17 18 19 19 18 15 12 11 11 10 10 10 10 11 10 9 7 6 6 6 5 4 6 9 12 13 13 13 12 12 13 12 11 10
15 14 13 12 10 9 7 6 5 5 7 8 9 10 10 10 10 10 11 11 12 13 14 15 15 14 15 16 16 16 16 18 17 14 11 11 11 12 12 12 13 12 12 11 10 9 8 8 7 6 6 8 11 13 14 13 13 13 13 13 12 11
17 16 14 13 12 11 9 7 6 5 5 6 7 8 9 9 11 13 14 14 14 14 15 16 15 15 15 15 15 15 15 15 14 13 12 13 13 13 14 14 14 14 13 13 12 11 10 9 8 8 7 8 12 14 15 15 14 13 13 13 12 12
17 17 15 14 13 11 9 8 6 6 6 4 5 6 7 7 8 10 13 14 12 13 14 14 15 14 13 14 13 13 12 12 13 14 15 16 16 15 15 15 15 14 14 12 12 11 11 11 11 11 10 10 13 16 17 17 16 15 14 14 14 13
18 18 17 15 13 11 9 8 7 6 6 5 3 4 6 6 4 3 5 7 7 10 11 9 10 9 10 11 7 6 8 11 13 16 17 17 17 16 15 15 15 14 14 12 11 11 11 11 12 12 12 13 14 16 19 19 19 17 16 15 15 15
18 18 17 15 13 10 9 7 7 7 6 5 4 4 4 5 3 1 2 2 3 6 6 5 5 5 7 5 1 3 7 9 10 13 16 17 17 17 17 16 16 15 14 13 13 13 12 10 9 9 10 13 15 17 19 21 21 20 18 17 17 17
19 18 16 15 13 10 9 7 6 7 6 5 4 5 5 4 3 2 2 1 1 3 4 3 4 4 5 6 4 2 5 4 6 8 12 15 15 16 17 17 16 15 14 14 13 11 9 8 9 7 8 11 12 16 19 21 22 21 20 19 18 18
20 19 18 16 14 12 10 8 7 7 7 5 4 6 5 4 3 2 1 1 1 2 3 4 4 5 6 8 6 3 4 2 5 4 7 11 11 10 12 14 14 14 15 12 8 6 6 8 10 10 9 12 11 13 18 21 23 23 23 22 21 20
21 20 19 17 16 15 13 11 10 8 7 6 6 6 5 3 2 1 0 1 2 3 3 4 4 5 6 6 6 5 5 1 3 3 3 5 7 5 3 9 12 12 11 7 3 3 5 7 9 10 11 12 9 11 16 20 23 25 25 24 23 22
23 21 20 19 18 16 14 13 12 10 8 7 7 7 6 4 3 1 1 1 1 2 3 3 4 4 4 5 5 5 4 2 1 2 1 2 3 4 2 4 7 5 6 5 2 3 4 5 4 7 11 12 10 9 13 17 20 23 25 25 24 24
24 22 20 19 18 17 15 14 13 11 10 9 9 8 7 5 3 2 1 1 1 2 2 2 3 3 3 4 6 7 6 4 4 3 3 6 4 3 4 4 4 3 4 4 3 4 7 5 2 1 4 7 11 10 9 12 16 20 23 24 24 24
25 23 20 19 18 17 16 14 12 11 10 10 10 9 7 6 4 3 2 1 1 3 3 3 3 2 2 3 5 8 10 9 9 8 6 8 8 4 2 3 3 3 3 3 2 2 5 4 1 2 2 1 4 5 5 5 8 14 18 22 24 23
25 23 21 20 19 19 17 15 12 11 11 10 10 9 7 5 3 3 2 1 1 2 4 4 3 3 4 4 6 8 9 9 11 11 9 8 9 10 10 8 6 6 8 8 6 6 6 3 1 2 1 1 1 2 2 3 7 9 11 15 20 22
26 24 23 22 22 21 19 16 14 13 12 10 11 10 8 7 5 4 3 2 1 2 3 3 3 4 4 4 5 6 6 7 9 11 10 10 10 12 14 13 11 9 9 8 7 8 9 8 5 3 3 3 1 0 2 2 7 6 6 8 11 15
27 26 25 24 24 22 20 18 17 16 14 13 13 12 9 8 7 5 4 3 2 1 2 3 4 3 3 3 3 4 5 5 5 7 9 9 10 10 11 13 12 11 11 9 8 9 9 9 9 7 4 2 1 2 2 3 3 2 6 9 6 5
29 28 27 26 25 23 21 19 19 19 17 15 15 12 9 8 7 6 5 5 3 2 3 3 3 3 2 3 3 4 5 5 5 6 7 7 8 9 10 11 10 10 11 10 8 9 10 8 8 8 7 4 1 1 2 3 1 1 5 6 7 10
30 30 29 28 26 24 22 21 21 21 19 16 14 11 10 9 8 7 6 6 5 4 4 4 4 3 3 3 3 4 4 5 6 7 7 7 8 8 8 9 9 9 9 9 10 10 10 9 7 7 7 6 4 2 2 2 2 2 2 3 8 12
31 31 31 30 28 26 24 22 22 23 22 17 13 11 11 10 9 8 7 6 6 5 5 5 5 4 4 3 3 3 4 5 7 9 9 9 9 8 8 8 9 9 9 10 10 9 9 10 8 7 6 6 5 3 2 1 1 2 3 4 4 4
33 33 33 32 29 27 26 24 23 24 24 20 15 14 12 11 10 9 8 7 7 7 6 6 6 4 4 3 4 5 6 8 9 10 11 10 10 10 10 10 10 10 10 10 10 9 9 10 9 8 7 7 7 6 4 3 4 5 4 5 5 3
35 34 34 33 31 29 28 26 25 26 26 22 18 17 15 14 12 11 10 9 9 8 7 7 6 5 4 4 5 7 8 9 9 10 11 12 12 12 12 12 12 12 11 11 10 9 8 8 8 8 8 9 9 8 5 4 5 7 5 4 5 5
35 35 35 34 32 30 29 27 26 27 27 23 20 19 18 17 15 13 12 11 10 10 9 8 7 6 5 4 5 6 6 7 7 9 11 13 12 12 13 13 13 14 13 13 12 11 10 9 9 8 8 9 9 8 7 6 5 5 5 6 6 5
37 37 36 35 33 32 30 29 28 29 29 25 21 21 20 18 16 15 14 13 12 11 10 9 8 7 5 4 4 4 4 5 7 9 11 12 12 12 13 14 15 15 14 14 13 12 11 11 10 9 9 8 8 8 7 7 6 5 6 7 6 6
36 37 37 36 34 33 32 31 30 30 30 26 23 22 21 19 17 15 15 14 13 12 11 10 9 8 6 5 4 3 2 3 5 7 9 11 11 11 12 14 15 15 15 14 13 13 12 12 11 10 10 9 8 8 8 7 7 7 7 7 7 7
36 37 38 37 35 34 33 32 31 32 31 27 24 23 22 21 19 17 16 15 14 13 11 9 9 9 8 6 5 3 1 1 3 4 7 9 10 10 11 13 14 15 14 14 14 14 14 13 13 12 12 11 10 9 9 8 8 8 8 7 7 8
36 37 38 38 37 36 34 33 33 33 32 29 26 25 24 23 21 19 18 16 15 14 11 10 10 10 8 7 6 4 3 3 2 3 6 8 9 10 11 12 13 13 13 13 14 14 14 14 14 13 13 13 13 12 10 9 8 8 8 8 7 7
29 31 35 37 37 36 35 34 35 35 33 30 29 27 26 25 24 22 20 18 17 15 14 12 12 12 11 9 7 7 6 5 3 3 5 7 8 9 10 11 12 12 12 12 13 13 13 13 13 14 14 14 13 13 12 11 10 9 9 8 8 7
Wind_Direction
147 152 155 153 155 156 160 169 170 177 184 185 185 181 176 178 182 179 171 166 167 167 168 176 178 180 180 178 182 185 186 183 176 173 170 173 175 174 177 182 183 180 179 174 167 173 184 183 176 174 166 162 182 190 182 183 184 172 154 135 124 122
149 152 157 157 158 157 161 170 169 174 186 186 182 182 181 182 185 180 172 169 173 175 177 183 184 185 184 182 184 188 193 187 181 179 174 181 185 180 179 183 185 184 186 183 176 176 179 182 183 179 171 165 178 187 179 175 177 173 160 140 128 121
152 154 159 162 165 164 166 172 170 174 189 189 185 188 187 185 185 180 174 174 180 182 186 192 190 190 190 186 186 191 197 192 188 186 178 188 192 187 183 183 187 188 189 187 183 183 178 180 185 185 174 167 174 182 177 173 173 173 162 142 129 120
157 158 161 165 171 171 172 175 173 174 186 191 191 194 192 188 184 181 180 181 188 189 193 200 196 196 196 191 188 191 199 196 193 190 184 193 196 193 190 186 189 189 192 190 183 186 181 177 182 186 181 168 172 176 174 176 176 172 164 146 130 119
158 162 168 171 171 173 177 180 179 178 183 188 193 198 197 194 186 184 186 188 195 198 201 205 201 200 201 198 194 192 197 199 195 192 194 202 201 198 196 192 191 191 193 193 184 184 183 176 176 181 186 173 172 174 173 177 182 180 170 152 134 123
156 163 172 172 174 181 181 182 186 186 190 190 194 196 197 201 193 189 192 194 200 205 207 207 205 206 205 202 199 194 196 199 197 199 205 206 205 204 201 196 195 194 195 197 192 188 188 180 176 178 185 180 174 176 176 178 183 184 179 163 147 134
154 161 168 171 183 191 187 189 193 194 199 197 197 197 197 201 197 194 197 201 206 212 212 207 206 209 210 205 201 200 199 200 200 204 210 206 207 210 205 200 199 198 198 201 200 197 193 184 179 180 185 188 179 178 181 181 183 185 185 178 167 155
158 163 167 175 189 196 195 197 198 202 206 202 200 198 197 198 194 195 203 209 211 213 210 207 208 209 212 210 206 203 202 202 202 206 210 206 209 211 207 203 202 202 202 203 199 193 192 183 181 183 187 193 188 182 184 186 187 188 191 192 188 177
170 172 175 182 191 199 200 202 205 208 210 209 208 206 204 201 192 192 199 204 208 209 206 208 215 217 216 217 211 205 205 204 204 207 206 204 207 208 205 202 205 206 201 196 188 185 187 182 183 188 192 197 197 188 189 196 197 196 197 198 200 196
180 182 186 188 192 200 202 205 212 216 217 216 214 215 212 205 200 199 198 197 203 209 211 215 221 225 225 225 216 207 207 206 205 205 202 202 200 199 199 200 206 206 197 189 183 184 190 192 200 203 201 203 204 202 201 207 211 209 207 203 205 208
188 189 192 191 193 197 196 202 212 219 224 224 220 219 217 213 211 209 209 207 210 215 219 225 230 234 233 231 223 212 205 205 206 203 199 199 196 193 194 198 202 203 200 194 191 199 218 236 244 236 221 214 214 218 218 218 222 223 218 212 210 214
193 192 191 191 190 186 187 198 208 208 214 225 227 222 218 219 221 218 218 219 222 224 224 230 235 237 236 234 230 219 207 206 208 203 198 198 196 194 194 197 201 204 210 213 219 230 248 262 265 260 239 228 226 229 231 228 230 232 226 220 217 219
191 190 187 184 181 178 181 189 200 202 202 216 228 230 221 216 223 222 220 224 226 228 229 233 235 233 236 238 234 224 213 213 212 207 205 205 204 201 198 201 205 212 221 230 241 249 262 270 272 275 256 242 235 231 233 234 237 240 233 228 225 226
183 183 179 176 173 170 171 170 173 181 187 205 222 234 229 214 218 219 217 218 220 227 230 232 233 229 233 242 241 231 217 213 213 207 209 213 214 213 208 207 210 219 229 237 248 255 263 270 279 285 270 256 244 233 232 233 237 243 240 235 232 234
176 174 171 168 168 166 166 164 162 162 159 176 201 217 222 217 227 227 220 217 218 231 236 235 236 231 234 243 247 246 229 218 217 210 211 212 210 216 218 217 218 222 230 238 248 254 261 272 283 286 276 268 255 243 238 235 236 240 243 242 241 242
169 168 166 164 166 166 165 163 167 164 150 140 144 176 198 205 230 243 224 227 227 240 249 250 251 245 244 243 243 272 250 230 225 218 218 217 212 216 221 222 225 227 230 237 249 255 264 278 285 285 282 275 264 252 244 239 236 236 239 242 246 249
168 166 165 165 166 165 163 163 171 172 158 141 125 125 153 174 184 153 189 235 242 251 263 276 288 285 277 272 266 282 259 242 235 227 226 227 222 220 222 224 227 231 233 238 250 258 266 278 279 289 297 282 267 256 246 240 237 238 240 242 246 251
169 167 165 165 165 165 164 163 170 175 167 152 145 142 137 141 140 129 142 152 245 271 292 314 333 334 344 12 34 284 278 255 234 230 229 229 227 227 230 231 232 236 241 245 250 257 272 277 263 272 310 302 273 252 245 243 241 241 243 243 246 251
170 168 166 165 164 161 157 157 164 171 171 164 162 158 147 144 137 119 106 54 358 330 334 342 3 20 28 38 45 19 351 287 214 216 232 229 224 228 235 236 236 241 246 251 255 263 292 295 265 257 296 315 294 259 249 246 246 247 247 247 249 252
170 168 166 165 162 157 154 156 162 169 174 166 162 162 161 170 173 155 153 8 346 337 344 352 9 27 33 38 41 42 35 12 210 201 220 225 221 217 228 234 233 237 241 247 274 288 309 311 283 265 284 308 305 271 257 252 251 251 250 250 251 253
169 170 170 168 165 163 163 163 166 175 177 162 159 168 176 188 194 165 115 46 0 336 340 358 14 25 30 33 38 52 62 67 141 171 132 23 274 226 166 196 211 220 236 246 287 320 311 319 320 281 280 299 308 289 266 257 256 255 254 253 252 254
170 172 174 174 172 171 174 174 174 177 172 163 163 172 182 190 199 187 143 97 64 27 5 15 26 28 27 37 51 62 69 75 80 93 91 53 31 233 200 176 178 193 231 251 287 310 289 287 41 211 262 300 311 306 280 259 257 257 256 254 253 254
173 174 176 178 176 174 176 178 178 173 166 164 167 174 183 189 199 206 184 141 41 22 12 12 29 56 67 75 74 74 76 75 78 84 94 85 77 87 116 131 140 133 113 91 76 0 307 278 188 136 112 12 311 318 301 276 272 263 257 256 255 256
177 176 177 177 175 175 177 179 176 168 165 164 165 169 170 167 163 159 156 139 61 25 6 5 32 77 94 102 90 80 78 73 73 78 86 93 88 78 76 85 91 88 85 85 92 79 59 58 164 164 123 141 100 10 288 330 332 294 271 262 258 260
180 177 178 176 175 177 177 177 175 168 166 162 160 166 167 163 155 145 143 140 110 36 27 54 84 88 88 94 81 69 69 69 68 69 74 81 82 75 72 73 74 77 81 88 102 91 71 66 78 110 151 167 128 204 226 0 347 310 300 297 277 270
183 179 180 179 179 182 181 180 178 174 174 170 169 175 178 173 166 159 156 158 164 60 74 106 103 88 73 61 52 51 57 66 67 63 67 71 71 69 66 66 66 67 71 79 98 91 73 75 82 77 81 123 195 245 252 332 343 302 313 316 304 304
187 182 183 183 184 188 189 190 191 186 184 183 183 183 178 169 163 164 163 163 158 112 113 137 117 90 74 52 45 53 59 67 72 68 66 64 61 58 57 58 56 56 61 64 75 78 73 79 87 75 72 88 80 4 321 302 265 273 313 306 297 309
188 184 186 187 189 193 195 198 202 199 195 195 194 184 171 167 167 169 167 166 160 127 116 128 125 105 85 70 55 54 54 62 69 68 66 64 61 57 52 52 49 48 51 52 56 67 70 69 70 66 70 84 81 59 2 314 268 254 268 288 300 304
188 186 188 191 193 197 199 205 209 207 203 203 201 187 174 173 175 177 177 176 172 153 133 128 129 118 96 82 59 52 62 73 75 70 65 62 57 50 44 41 41 40 40 46 49 51 57 59 60 58 53 61 65 58 40 4 307 291 270 276 286 291
189 188 190 194 197 200 203 210 215 212 209 207 204 193 183 183 185 187 190 188 181 169 155 147 142 132 117 95 78 80 86 86 78 66 57 48 42 40 39 38 37 37 37 42 44 43 47 51 55 53 46 45 45 39 39 36 7 353 321 281 276 284
192 191 193 196 200 203 206 211 217 215 212 211 207 198 192 190 191 193 197 196 188 178 168 161 156 148 138 113 101 100 94 85 71 57 45 38 37 40 43 44 43 43 43 44 44 40 41 41 42 44 42 42 44 44 43 32 5 351 341 311 303 309
196 195 196 199 202 206 209 212 217 216 213 213 211 204 201 198 196 195 196 197 191 183 174 169 165 159 153 136 120 109 92 78 63 50 41 36 40 44 45 44 43 43 43 43 42 38 38 35 31 30 31 31 33 38 41 32 11 351 344 332 317 308
199 198 199 202 205 209 212 214 216 216 214 214 215 212 210 207 204 200 197 197 195 188 182 178 175 171 165 156 145 122 85 65 50 43 38 36 40 43 41 39 36 36 37 37 36 35 36 34 28 25 22 17 13 16 22 18 9 1 352 343 332 321
201 201 202 204 208 211 214 215 215 216 216 216 217 217 217 216 213 208 203 201 199 196 192 186 179 176 174 170 172 165 99 51 39 38 33 30 34 37 35 32 30 30 33 35 35 36 37 34 30 28 21 13 9 3 358 355 355 355 357 358 354 343
203 203 204 206 209 213 215 215 214 215 217 219 221 221 222 223 220 215 211 207 204 201 200 194 181 176 179 182 185 192 208 348 18 31 25 23 29 32 29 26 23 24 30 32 32 32 33 30 28 26 21 15 9 0 351 344 340 338 341 345 346 343
204 205 206 208 210 214 216 215 213 213 217 221 223 223 223 224 224 221 219 216 211 206 203 198 187 183 185 191 200 215 237 266 318 2 10 17 25 27 26 23 20 22 26 26 24 22 20 17 15 13 10 6 2 359 355 347 337 329 325 321 323 331
210 209 210 210 212 214 215 214 213 213 217 221 223 223 225 225 224 223 223 223 219 213 207 201 195 193 194 199 208 221 232 241 262 323 356 9 16 20 20 17 17 19 18 14 11 10 7 4 2 357 355 353 352 352 350 346 341 335 327 319 315 317